Goshen, IN

6:22 PM EDT on July 24, 2017 (GMT -0400)
Goshen Municipal

Weather History for KGSH - February, 2014

Change the Weather History Date:

Saturday, February 8, 2014

  Actual Average Record
Temperature  
Mean Temperature 11 °F -  
Max Temperature 17 °F 31 °F 58 °F (1990)
Min Temperature 5 °F 13 °F -13 °F (1967)
Degree Days  
Heating Degree Days 54    
Moisture  
Dew Point 7 °F    
Average Humidity 76    
Maximum Humidity 84    
Minimum Humidity 67    
Precipitation  
Precipitation 0.04 in - - ()
Sea Level Pressure  
Sea Level Pressure 30.23 in    
Wind  
Wind Speed 5 mph (SSE)    
Max Wind Speed 9 mph    
Max Gust Speed -    
Visibility 4 miles    
Events Snow    
Averages and records for this station are not official NWS values.
T = Trace of Precipitation, MM = Missing Value Source: NWS Daily Summary

Daily Weather History Graph

Daily Weather History Graph

Search for Another Location

Airport or City:

Trip Planner

Search our weather history database for the weather conditions in past years. The results will help you decide how hot, cold, wet, or windy it might be!

Date:

Astronomy

Feb. 08, 2014 Rise Set
Actual Time 7:47 AM EST 6:08 PM EST
Civil Twilight 7:18 AM EST 6:36 PM EST
Nautical Twilight 6:45 AM EST 7:09 PM EST
Astronomical Twilight 6:13 AM EST 7:42 PM EST
Moon 1:00 PM EST (2/8) 3:00 AM EST (2/8)
Length of Visible Light 11h 18m
Length of Day
10h 20m
Waxing Gibbous, 68% of the Moon is Illuminated
Feb 8
Waxing Gibbous
Feb 14
Full
Feb 22
Last Quarter
Mar 1
New
Mar 8
First Quarter

Hourly Weather History & Observations

Time (EST) Temp. Windchill Dew Point Humidity Pressure Visibility Wind Dir Wind Speed Gust Speed Precip Events Conditions
12:53 AM 6.1 °F -5.6 °F -2.0 °F 69% 30.38 in 10.0 mi SW 6.9 mph - N/A   Partly Cloudy
1:53 AM 6.1 °F -5.6 °F -2.0 °F 69% 30.38 in 10.0 mi SW 6.9 mph - N/A   Clear
2:53 AM 7.0 °F -6.6 °F -2.0 °F 67% 30.37 in 10.0 mi SW 9.2 mph - N/A   Clear
3:53 AM 5.0 °F -5.6 °F -2.9 °F 70% 30.36 in 10.0 mi SW 5.8 mph - N/A   Scattered Clouds
4:53 AM 5.0 °F -2.1 °F -2.9 °F 70% 30.35 in 10.0 mi SW 3.5 mph - N/A   Overcast
5:53 AM 5.0 °F -2.1 °F -2.9 °F 70% 30.36 in 10.0 mi SW 3.5 mph - N/A   Overcast
6:53 AM 6.1 °F - -2.0 °F 69% 30.35 in 10.0 mi Calm Calm - N/A   Overcast
7:53 AM 7.0 °F - -0.9 °F 70% 30.35 in 10.0 mi Calm Calm - N/A   Overcast
8:53 AM 8.1 °F 1.4 °F -0.9 °F 67% 30.35 in 10.0 mi SSE 3.5 mph - N/A   Overcast
9:53 AM 10.0 °F 3.6 °F 1.0 °F 67% 30.34 in 9.0 mi SSE 3.5 mph - N/A   Overcast
10:53 AM 10.9 °F 4.7 °F 1.9 °F 67% 30.33 in 5.0 mi South 3.5 mph - 0.00 in   Haze
11:53 AM 12.9 °F 5.2 °F 3.9 °F 67% 30.32 in 4.0 mi South 4.6 mph - 0.00 in Snow Light Snow
12:38 PM 14.0 °F 6.5 °F 6.8 °F 73% 30.24 in 2.5 mi SSE 4.6 mph - 0.00 in Snow Light Snow
12:53 PM 14.0 °F 5.1 °F 7.0 °F 74% 30.29 in 2.0 mi South 5.8 mph - 0.00 in Snow Light Snow
1:53 PM 15.1 °F 6.4 °F 8.1 °F 74% 30.26 in 2.0 mi South 5.8 mph - 0.00 in Snow Light Snow
2:53 PM 17.1 °F 10.0 °F 9.0 °F 71% 30.22 in 1.8 mi SE 4.6 mph - 0.00 in Snow Light Snow
3:27 PM 15.8 °F 6.1 °F 10.4 °F 79% 30.16 in 0.8 mi East 6.9 mph - 0.00 in Snow Light Snow
3:37 PM 15.8 °F 7.2 °F 10.4 °F 79% 30.16 in 0.5 mi ESE 5.8 mph - 0.00 in Snow Snow
3:53 PM 16.0 °F 8.8 °F 10.0 °F 77% 30.21 in 0.5 mi ESE 4.6 mph - 0.00 in Snow Snow
4:02 PM 15.8 °F 7.2 °F 10.4 °F 79% 30.16 in 0.5 mi SE 5.8 mph - 0.01 in Snow Snow
4:18 PM 15.8 °F 8.6 °F 10.4 °F 79% 30.16 in 0.8 mi ESE 4.6 mph - 0.01 in Snow Light Snow
4:32 PM 15.8 °F 10.2 °F 10.4 °F 79% 30.16 in 0.2 mi ESE 3.5 mph - 0.01 in Snow Heavy Snow
4:53 PM 16.0 °F 8.8 °F 10.9 °F 81% 30.21 in 0.5 mi SE 4.6 mph - 0.03 in Snow Snow
5:05 PM 15.8 °F 7.2 °F 10.4 °F 79% 30.16 in 0.8 mi SE 5.8 mph - 0.00 in Snow Light Snow
5:32 PM 15.8 °F 7.2 °F 10.4 °F 79% 30.17 in 1.0 mi SSE 5.8 mph - 0.00 in Snow Light Snow
5:53 PM 16.0 °F 6.3 °F 10.0 °F 77% 30.22 in 1.8 mi SSE 6.9 mph - 0.00 in Snow Light Snow
6:14 PM 15.8 °F 10.2 °F 10.4 °F 79% 30.16 in 0.8 mi SE 3.5 mph - 0.00 in Snow Light Snow
6:21 PM 15.8 °F 6.1 °F 10.4 °F 79% 30.16 in 1.5 mi SSE 6.9 mph - 0.00 in Snow Light Snow
6:24 PM 15.8 °F 5.1 °F 10.4 °F 79% 30.16 in 2.0 mi SSE 8.1 mph - 0.00 in Snow Light Snow
6:40 PM 15.8 °F 6.1 °F 10.4 °F 79% 30.16 in 3.0 mi SE 6.9 mph - 0.01 in Snow Light Snow
6:53 PM 16.0 °F 5.3 °F 10.9 °F 81% 30.21 in 4.0 mi SSE 8.1 mph - 0.01 in Snow Light Snow
7:21 PM 15.8 °F 7.2 °F 10.4 °F 79% 30.16 in 2.5 mi SSE 5.8 mph - 0.00 in Snow Light Snow
7:28 PM 15.8 °F 10.2 °F 10.4 °F 79% 30.16 in 3.0 mi SSE 3.5 mph - 0.00 in Snow Light Snow
7:53 PM 15.1 °F 9.4 °F 10.9 °F 84% 30.21 in 4.0 mi SE 3.5 mph - 0.00 in Snow Light Snow
8:06 PM 15.8 °F 10.2 °F 10.4 °F 79% 30.15 in 2.0 mi SE 3.5 mph - 0.00 in Snow Light Snow
8:53 PM 14.0 °F 8.2 °F 10.0 °F 84% 30.20 in 2.0 mi East 3.5 mph - 0.00 in Snow Light Snow
9:13 PM 15.8 °F 10.2 °F 10.4 °F 79% 30.15 in 3.0 mi ESE 3.5 mph - 0.00 in Snow Light Snow
9:51 PM 15.8 °F 8.6 °F 10.4 °F 79% 30.14 in 2.5 mi SE 4.6 mph - 0.00 in Snow Light Snow
9:53 PM 15.1 °F 7.7 °F 10.9 °F 84% 30.19 in 2.0 mi SE 4.6 mph - 0.00 in Snow Light Snow
10:53 PM 15.1 °F 9.4 °F 10.9 °F 84% 30.18 in 2.0 mi SE 3.5 mph - 0.00 in Snow Light Snow
11:38 PM 15.8 °F - 10.4 °F 79% 30.12 in 3.0 mi Calm Calm - 0.00 in   Overcast
11:53 PM 15.1 °F - 10.0 °F 80% 30.17 in 3.0 mi Calm Calm - 0.00 in   Haze